This demonstration page uses our WeatherBlox Daily Observations layout. Learn more.

Left ArrowRight Arrow

Hourly Observations for June 26, 2022

Temp ( °F °C ) Dew Point ( °F °C ) Humidity (%) Winds ( mph kmh ) Pressure ( in mb ) Visibility ( mi km ) Precip ( " mm )
12:53 am 00:53 Clear 74 23.3 69 20.6 85 85 NNE 3 6 30.06 1018 10 16 0.00 0.00
1:53 am 01:53 Clear 74 23.3 70 21.1 88 88 Calm 30.07 1018 10 16 0.00 0.00
2:53 am 02:53 Clear 78 25.6 62 16.7 58 58 SE 6 9 30.06 1018 10 16 0.00 0.00
3:53 am 03:53 Clear 77 25 62 16.7 60 60 S 5 7 30.06 1018 10 16 0.00 0.00
4:53 am 04:53 Clear 70 21.1 65 18.3 84 84 NE 3 6 30.09 1019 10 16 0.00 0.00
5:53 am 05:53 Partly Cloudy 70 21.1 66 18.9 87 87 Calm 30.10 1019 10 16 0.00 0.00
6:53 am 06:53 Sunny 71 21.7 66 18.9 84 84 Calm 30.12 1020 10 16 0.00 0.00
7:53 am 07:53 Sunny 74 23.3 68 20 82 82 Calm 30.12 1020 10 16 0.00 0.00
8:53 am 08:53 Mostly Cloudy 76 24.4 69 20.6 79 79 SSW 3 6 30.12 1020 10 16 0.00 0.00
9:53 am 09:53 Cloudy 78 25.6 69 20.6 74 74 SSW 3 6 30.13 1020 10 16 0.00 0.00
10:53 am 10:53 Mostly Cloudy 83 28.3 71 21.7 67 67 VRB 6 9 30.13 1020 10 16 0.00 0.00
11:53 am 11:53 Mostly Sunny 85 29.4 70 21.1 61 61 SW 6 9 30.13 1020 10 16 0.00 0.00
12:53 pm 12:53 Partly Cloudy 85 29.4 69 20.6 59 59 NW 5 7 30.12 1020 10 16 0.00 0.00
1:53 pm 13:53 Mostly Sunny 87 30.6 66 18.9 50 50 VRB 3 6 30.10 1019 10 16 0.00 0.00
2:53 pm 14:53 Mostly Cloudy 89 31.7 67 19.4 48 48 Calm 30.08 1019 10 16 0.00 0.00
3:53 pm 15:53 Partly Cloudy 88 31.1 67 19.4 50 50 N 3 6 30.06 1018 10 16 0.00 0.00
4:53 pm 16:53 Mostly Cloudy 88 31.1 68 20 52 52 NE 7 11 30.05 1018 10 16 0.00 0.00
5:53 pm 17:53 Mostly Sunny 89 31.7 67 19.4 48 48 VRB 6 9 30.02 1017 10 16 0.00 0.00
6:53 pm 18:53 Sunny 88 31.1 67 19.4 50 50 E 5 7 30.02 1017 10 16 0.00 0.00
7:53 pm 19:53 Partly Cloudy 86 30 69 20.6 57 57 NE 3 6 30.05 1018 10 16 0.00 0.00
8:53 pm 20:53 Clear 83 28.3 68 20 61 61 ENE 8 13 30.07 1018 10 16 0.00 0.00
9:53 pm 21:53 Clear 80 26.7 68 20 67 67 NE 5 7 30.07 1018 10 16 0.00 0.00
10:53 pm 22:53 Mostly Cloudy 81 27.2 68 20 65 65 Calm 30.08 1019 10 16 0.00 0.00
11:53 pm 23:53 Cloudy 78 25.6 69 20.6 74 74 Calm 30.09 1019 10 16 0.00 0.00

Powered by AerisWeather